Preview of NWS' New Version of Forecast
This preview is not operational and should not be used for support decisions.

Regional Weather Roundup (RWR)

Issued by National Weather Service (NWS)

                            
000
ASUS45 KBOI 230910
RWRID 

IDAHO REGIONAL WEATHER ROUNDUP
NATIONAL WEATHER SERVICE BOISE ID
300 AM MDT TUE APR 23 2019

NOTE: "FAIR" INDICATES FEW OR NO CLOUDS BELOW 12000 FEET
WITH NO SIGNIFICANT WEATHER AND/OR OBSTRUCTIONS TO VISIBILITY

IDZ012-014-231000-
SOUTHWEST IDAHO

  
CITY           SKY/WX    TMP DP  RH WIND       PRES   REMARKS
BOISE          PTCLDY    50  38  63 SE5       30.15F                  
CALDWELL       PTCLDY    49  40  71 W5        30.16S                  
MOUNTAIN HOME  PTCLDY    48  35  61 NW6       30.15F                  
$$

IDZ016-017-231000-
SOUTHCENTRAL IDAHO

  
CITY           SKY/WX    TMP DP  RH WIND       PRES   REMARKS
BURLEY         PTCLDY    42  36  79 S8        30.17F                  
JEROME         PTCLDY    47  31  53 SE8       30.17F                  
TWIN FALLS     PTCLDY    47  30  51 S14       30.17F                  
$$

IDZ019>023-231000-
SOUTHEAST IDAHO

  
CITY           SKY/WX    TMP DP  RH WIND       PRES   REMARKS
IDAHO FALLS    MOCLDY    49  37  63 S13       30.19F                  
POCATELLO      PTCLDY    43  37  79 S8        30.20S                  
REXBURG        MOCLDY    48  37  65 S9        30.18F                  
$$

IDZ006-010-011-018-031-032-231000-
CENTRAL IDAHO MOUNTAINS

  
CITY           SKY/WX    TMP DP  RH WIND       PRES   REMARKS
MCCALL         PTCLDY    36  30  79 N5        30.20F WCI  32          
HAILEY         MOCLDY    43  36  75 NW8       30.21F                  
STANLEY          N/A     32  24  72 CALM      30.26F                  
SALMON         MOCLDY    43  37  79 CALM      30.17S                  
CHALLIS        PTCLDY    47  30  51 SE3       30.18F                  
$$

IDZ002-004-006-007-026-231000-
NORTHERN IDAHO

  
CITY           SKY/WX    TMP DP  RH WIND       PRES   REMARKS
LEWISTON       CLOUDY    59  45  59 SE5       30.10F                  
LOWELL           N/A     48  46  93 N3        30.16F                  
COEUR D'ALENE  MOCLDY    53  44  71 SW8       30.07F                  
MULLAN PASS    CLOUDY    39  35  86 VRB7      30.10F WCI  34          
$$